Burlington, VT

7:25 PM EDT on April 23, 2018 (GMT -0400)
Burlington International

Weather History for KBTV - August, 2013

Change the Weather History Date:

Wednesday, August 28, 2013

  Actual Average Record
Temperature  
Mean Temperature 76 °F 67 °F  
Max Temperature 86 °F 77 °F 94 °F (1952)
Min Temperature 66 °F 57 °F 39 °F (1925)
Degree Days  
Heating Degree Days 0 2  
Month to date heating degree days 9 26  
Since 1 June heating degree days 81 112  
Since 1 July heating degree days 16 39  
Cooling Degree Days 11 4  
Month to date cooling degree days 126 136  
Year to date cooling degree days 573 439  
Since 1 June cooling degree days 526 420  
Growing Degree Days 26 (Base 50)    
Moisture  
Dew Point 67 °F    
Average Humidity 76    
Maximum Humidity 100    
Minimum Humidity 51    
Precipitation  
Precipitation 0.00 in 0.11 in 3.38 in (2011)
Month to date precipitation 3.07 3.58  
Year to date precipitation 32.69 23.74  
Snow  
Snow 0.00 in 0.00 in 0.00 in (2002)
Month to date snowfall 0.0 0.0  
Since 1 June snowfall 0.0 0.0  
Since 1 July snowfall 0.0 0.0  
Snow Depth 0.00 in    
Sea Level Pressure  
Sea Level Pressure 29.90 in    
Wind  
Wind Speed 3 mph (NNW)    
Max Wind Speed 10 mph    
Max Gust Speed 14 mph    
Visibility 9 miles    
Events      
T = Trace of Precipitation, MM = Missing Value Source: NWS Daily Summary

Daily Weather History Graph

Daily Weather History Graph

Search for Another Location

Airport or City:

Astronomy

Aug. 28, 2013 Rise Set
Actual Time 6:10 AM EDT 7:35 PM EDT
Civil Twilight 5:40 AM EDT 8:05 PM EDT
Nautical Twilight 5:03 AM EDT 8:42 PM EDT
Astronomical Twilight 4:24 AM EDT 9:21 PM EDT
Moon 11:54 PM EDT (8/28) 2:17 PM EDT (8/28)
Length of Visible Light 14h 25m
Length of Day
13h 24m
Waning Gibbous, 47% of the Moon is Illuminated
Aug 28
Waning Gibbous
Sep 5
New
Sep 12
First Quarter
Sep 19
Full
Sep 26
Last Quarter

Hourly Weather History & Observations

Time (EDT) Temp. Heat Index Dew Point Humidity Pressure Visibility Wind Dir Wind Speed Gust Speed Precip Events Conditions
12:54 AM 70.0 °F - 68.0 °F 93% 29.89 in 10.0 mi Calm Calm - N/A   Partly Cloudy
1:54 AM 68.0 °F - 66.9 °F 96% 29.88 in 8.0 mi Calm Calm - N/A   Clear
2:32 AM 68.0 °F - 66.2 °F 94% 29.88 in 2.0 mi Calm Calm - N/A   Clear
2:41 AM 68.0 °F - 66.2 °F 94% 29.88 in 7.0 mi Calm Calm - N/A   Clear
2:54 AM 66.9 °F - 66.0 °F 97% 29.88 in 8.0 mi Calm Calm - N/A   Clear
3:54 AM 66.9 °F - 64.9 °F 93% 29.88 in 8.0 mi East 4.6 mph - N/A   Overcast
4:54 AM 66.9 °F - 64.9 °F 93% 29.88 in 8.0 mi Calm Calm - N/A   Overcast
5:54 AM 66.9 °F - 64.9 °F 93% 29.89 in 9.0 mi Calm Calm - N/A   Scattered Clouds
6:54 AM 66.9 °F - 64.9 °F 93% 29.89 in 10.0 mi Calm Calm - N/A   Scattered Clouds
7:54 AM 68.0 °F - 66.0 °F 93% 29.91 in 10.0 mi Calm Calm - N/A   Mostly Cloudy
8:11 AM 69.8 °F - 66.2 °F 88% 29.91 in 10.0 mi Calm Calm - N/A   Overcast
8:51 AM 71.6 °F - 66.2 °F 83% 29.91 in 10.0 mi Calm Calm - N/A   Mostly Cloudy
8:54 AM 71.1 °F - 66.9 °F 87% 29.91 in 10.0 mi Calm Calm - N/A   Mostly Cloudy
9:01 AM 69.8 °F - 66.2 °F 88% 29.92 in 10.0 mi Calm Calm - N/A   Mostly Cloudy
9:42 AM 73.4 °F - 68.0 °F 83% 29.92 in 10.0 mi Calm Calm - N/A   Mostly Cloudy
9:54 AM 73.9 °F - 68.0 °F 82% 29.92 in 10.0 mi Calm Calm - N/A   Mostly Cloudy
10:01 AM 75.2 °F - 68.0 °F 78% 29.92 in 10.0 mi Calm Calm - N/A   Mostly Cloudy
10:40 AM 77.0 °F - 68.0 °F 74% 29.91 in 10.0 mi Calm Calm - N/A   Scattered Clouds
10:54 AM 78.1 °F - 69.1 °F 74% 29.91 in 10.0 mi SE 3.5 mph - N/A   Scattered Clouds
11:50 AM 82.4 °F 85.4 °F 68.0 °F 62% 29.90 in 10.0 mi Variable 3.5 mph - N/A   Mostly Cloudy
11:54 AM 81.0 °F 83.3 °F 66.9 °F 62% 29.89 in 10.0 mi Calm Calm - N/A   Mostly Cloudy
12:01 PM 80.6 °F 83.2 °F 68.0 °F 65% 29.90 in 10.0 mi WSW 4.6 mph - N/A   Scattered Clouds
12:54 PM 82.0 °F 85.5 °F 69.1 °F 65% 29.89 in 10.0 mi West 6.9 mph - N/A   Scattered Clouds
1:54 PM 84.0 °F 87.0 °F 68.0 °F 58% 29.88 in 10.0 mi WNW 4.6 mph - N/A   Scattered Clouds
2:54 PM 84.0 °F 86.5 °F 66.9 °F 56% 29.86 in 10.0 mi NW 6.9 mph - N/A   Scattered Clouds
3:54 PM 86.0 °F 88.8 °F 66.9 °F 53% 29.86 in 10.0 mi NNW 8.1 mph - N/A   Partly Cloudy
4:54 PM 84.9 °F 87.1 °F 66.0 °F 53% 29.86 in 10.0 mi North 8.1 mph - N/A   Partly Cloudy
5:54 PM 82.0 °F 84.5 °F 66.9 °F 60% 29.87 in 10.0 mi NW 6.9 mph - N/A   Partly Cloudy
6:54 PM 80.1 °F 82.7 °F 68.0 °F 67% 29.89 in 10.0 mi North 4.6 mph - N/A   Partly Cloudy
7:54 PM 78.1 °F - 68.0 °F 71% 29.90 in 10.0 mi North 4.6 mph - N/A   Partly Cloudy
8:54 PM 75.9 °F - 68.0 °F 76% 29.92 in 10.0 mi Calm Calm - N/A   Clear
9:54 PM 73.9 °F - 68.0 °F 82% 29.93 in 10.0 mi Calm Calm - N/A   Clear
10:54 PM 71.1 °F - 68.0 °F 90% 29.94 in 10.0 mi Calm Calm - N/A   Clear
11:54 PM 70.0 °F - 66.9 °F 90% 29.95 in 10.0 mi NNW 5.8 mph - N/A   Clear